When you browse on this site, cookies collect data to enhance your experience and personalize the content and advertising you see.
Visit our Privacy Policy to learn more. By continuing to use the site, you agree to this use of cookies and data.
  • In Hungary
  • List of Countries
  • For 7 days
  • Water Temperature
  • Satellite Maps
  • Weather Map
  • News
  • Weather Widgets
  • user-avatar
    Login

    Hourly Weather Cuenca

    Today, 10 December, Monday

    Time Temperature Precipitation Wind Pressure Humidity
    00:00 +7°C° 0 mm 3 mps 689 mmHg 58%
    01:00 +7°C° 0 mm 3 mps 688 mmHg 58%
    02:00 +7°C° 0 mm 3 mps 688 mmHg 59%
    03:00 +5°C° 0 mm 3 mps 688 mmHg 60%
    04:00 +5°C° 0 mm 3 mps 688 mmHg 58%
    05:00 +6°C° 0 mm 2 mps 688 mmHg 56%
    06:00 +6°C° 0 mm 2 mps 688 mmHg 51%
    07:00 +7°C° 0 mm 2 mps 688 mmHg 48%
    08:00 +8°C° 0 mm 2 mps 688 mmHg 45%
    09:00 +9°C° 0 mm 2 mps 688 mmHg 42%
    10:00 +12°C° 0 mm 1 mps 688 mmHg 37%
    11:00 +14°C° 0 mm 1 mps 688 mmHg 31%
    12:00 +16°C° 0 mm 1 mps 688 mmHg 25%
    13:00 +16°C° 0 mm 1 mps 688 mmHg 26%
    14:00 +16°C° 0 mm 1 mps 687 mmHg 27%
    15:00 +16°C° 0 mm 1 mps 687 mmHg 27%
    16:00 +14°C° 0 mm 1 mps 686 mmHg 32%
    17:00 +12°C° 0 mm 1 mps 686 mmHg 36%
    18:00 +10°C° 0 mm 1 mps 685 mmHg 41%
    19:00 +10°C° 0 mm 1 mps 685 mmHg 41%
    20:00 +9°C° 0 mm 1 mps 685 mmHg 42%
    21:00 +9°C° 0 mm 1 mps 685 mmHg 43%
    22:00 +8°C° 0 mm 1 mps 685 mmHg 43%
    23:00 +8°C° 0 mm 1 mps 685 mmHg 44%

    Tomorrow, 11 December, Tuesday

    Time Temperature Precipitation Wind Pressure Humidity
    00:00 +8°C° 0 mm 1 mps 684 mmHg 44%
    01:00 +8°C° 0 mm 1 mps 684 mmHg 45%
    02:00 +7°C° 0 mm 1 mps 684 mmHg 46%
    03:00 +7°C° 0 mm 1 mps 683 mmHg 47%
    04:00 +7°C° 0 mm 1 mps 683 mmHg 47%
    05:00 +7°C° 0 mm 1 mps 683 mmHg 47%
    06:00 +6°C° 0 mm 1 mps 683 mmHg 47%
    07:00 +8°C° 0 mm 1 mps 683 mmHg 46%
    08:00 +9°C° 0 mm 1 mps 683 mmHg 44%
    09:00 +10°C° 0 mm 1 mps 684 mmHg 43%
    10:00 +11°C° 0 mm 1 mps 684 mmHg 39%
    11:00 +13°C° 0 mm 2 mps 684 mmHg 34%
    12:00 +14°C° 0 mm 3 mps 684 mmHg 30%
    13:00 +14°C° 0 mm 3 mps 683 mmHg 31%
    14:00 +14°C° 0 mm 3 mps 683 mmHg 32%
    15:00 +14°C° 0 mm 3 mps 683 mmHg 33%
    16:00 +12°C° 0 mm 3 mps 682 mmHg 38%
    17:00 +10°C° 0 mm 2 mps 682 mmHg 43%
    18:00 +8°C° 0 mm 2 mps 682 mmHg 47%
    19:00 +8°C° 0 mm 2 mps 682 mmHg 48%
    20:00 +8°C° 0 mm 2 mps 682 mmHg 48%
    21:00 +8°C° 0 mm 2 mps 682 mmHg 49%
    22:00 +7°C° 0 mm 2 mps 682 mmHg 51%
    23:00 +7°C° 0 mm 2 mps 682 mmHg 54%

    Day after tomorrow, 12 December, Wednesday

    Time Temperature Precipitation Wind Pressure Humidity
    00:00 +6°C° 0 mm 2 mps 682 mmHg 57%
    01:00 +6°C° 0 mm 2 mps 682 mmHg 59%
    02:00 +6°C° 0 mm 2 mps 682 mmHg 62%
    03:00 +6°C° 0 mm 1 mps 682 mmHg 64%
    04:00 +6°C° 0 mm 1 mps 682 mmHg 67%
    05:00 +6°C° 0 mm 1 mps 682 mmHg 69%
    06:00 +5°C° 0 mm 1 mps 681 mmHg 72%
    07:00 +6°C° 0 mm 1 mps 682 mmHg 70%
    08:00 +6°C° 0 mm 2 mps 682 mmHg 68%
    09:00 +7°C° 0 mm 2 mps 683 mmHg 67%
    10:00 +8°C° 0 mm 2 mps 682 mmHg 62%
    11:00 +10°C° 0 mm 3 mps 682 mmHg 57%
    12:00 +11°C° 0 mm 4 mps 682 mmHg 53%
    13:00 +11°C° 0 mm 4 mps 681 mmHg 54%
    14:00 +11°C° 0 mm 4 mps 681 mmHg 55%
    15:00 +11°C° 0 mm 4 mps 680 mmHg 55%
    16:00 +10°C° 0 mm 4 mps 680 mmHg 64%
    17:00 +8°C° 0 mm 3 mps 680 mmHg 72%
    18:00 +7°C° 0 mm 3 mps 680 mmHg 80%
    19:00 +5°C° 0 mm 3 mps 679 mmHg 83%
    20:00 +5°C° 0 mm 3 mps 679 mmHg 85%
    21:00 +5°C° 0 mm 3 mps 679 mmHg 88%
    22:00 +5°C° 0 mm 3 mps 679 mmHg 89%
    23:00 +5°C° 0 mm 4 mps 679 mmHg 89%

    13 December, Thursday

    Time Temperature Precipitation Wind Pressure Humidity
    00:00 +6°C° 0 mm 4 mps 678 mmHg 90%
    01:00 +5°C° 0 mm 5 mps 678 mmHg 90%
    02:00 +4°C° 0 mm 6 mps 677 mmHg 90%
    03:00 +4°C° 0 mm 6 mps 677 mmHg 89%
    04:00 +4°C° 0.6 mm 7 mps 676 mmHg 89%
    05:00 +4°C° 0.6 mm 8 mps 676 mmHg 89%
    06:00 +4°C° 0.6 mm 8 mps 675 mmHg 89%
    07:00 +4°C° 0.3 mm 8 mps 675 mmHg 88%
    08:00 +4°C° 0.3 mm 8 mps 674 mmHg 88%
    09:00 +4°C° 0.3 mm 8 mps 674 mmHg 88%
    10:00 +5°C° 0.4 mm 8 mps 673 mmHg 86%
    11:00 +5°C° 0.4 mm 9 mps 673 mmHg 84%
    12:00 +5°C° 0.4 mm 9 mps 672 mmHg 82%
    13:00 +5°C° 0.8 mm 9 mps 672 mmHg 77%
    14:00 +3°C° 0.8 mm 10 mps 672 mmHg 73%
    15:00 +2°C° 0.8 mm 10 mps 672 mmHg 68%
    16:00 +2°C° 0.4 mm 10 mps 673 mmHg 70%
    17:00 +1°C° 0.4 mm 9 mps 674 mmHg 71%
    18:00 +1°C° 0.4 mm 9 mps 674 mmHg 72%
    19:00 0°C° 0 mm 9 mps 675 mmHg 72%
    20:00 0°C° 0 mm 8 mps 676 mmHg 72%
    21:00 -1°C° 0 mm 8 mps 677 mmHg 72%
    22:00 -1°C° 0 mm 8 mps 677 mmHg 73%
    23:00 -1°C° 0 mm 8 mps 678 mmHg 74%

    14 December, Friday

    Time Temperature Precipitation Wind Pressure Humidity
    00:00 -2°C° 0 mm 7 mps 678 mmHg 75%
    01:00 -2°C° 0 mm 7 mps 679 mmHg 76%
    02:00 -2°C° 0 mm 7 mps 679 mmHg 77%
    03:00 -3°C° 0 mm 7 mps 679 mmHg 78%
    04:00 -3°C° 0 mm 6 mps 680 mmHg 80%
    05:00 -3°C° 0 mm 6 mps 680 mmHg 82%
    06:00 -3°C° 0 mm 6 mps 681 mmHg 84%
    07:00 -2°C° 0 mm 6 mps 681 mmHg 81%
    08:00 -1°C° 0 mm 6 mps 682 mmHg 78%
    09:00 -1°C° 0 mm 6 mps 683 mmHg 75%
    10:00 +2°C° 0 mm 6 mps 684 mmHg 70%
    11:00 +3°C° 0 mm 7 mps 684 mmHg 65%
    12:00 +4°C° 0 mm 7 mps 684 mmHg 61%
    13:00 +4°C° 0 mm 7 mps 684 mmHg 60%
    14:00 +5°C° 0 mm 7 mps 684 mmHg 59%
    15:00 +5°C° 0 mm 6 mps 684 mmHg 58%
    16:00 +5°C° 0 mm 5 mps 685 mmHg 64%
    17:00 +3°C° 0 mm 4 mps 685 mmHg 69%
    18:00 +2°C° 0 mm 3 mps 685 mmHg 75%
    19:00 +2°C° 0 mm 3 mps 686 mmHg 75%
    20:00 +1°C° 0 mm 3 mps 686 mmHg 76%
    21:00 +2°C° 0 mm 2 mps 687 mmHg 77%
    22:00 +2°C° 0 mm 2 mps 687 mmHg 77%
    23:00 +2°C° 0 mm 2 mps 687 mmHg 77%

    15 December, Saturday

    Time Temperature Precipitation Wind Pressure Humidity
    00:00 +2°C° 0 mm 2 mps 687 mmHg 77%
    01:00 +2°C° 0 mm 2 mps 687 mmHg 77%
    02:00 +2°C° 0 mm 2 mps 687 mmHg 78%
    03:00 +2°C° 0 mm 2 mps 687 mmHg 78%
    04:00 +3°C° 0 mm 1 mps 686 mmHg 78%
    05:00 +3°C° 0 mm 1 mps 686 mmHg 78%
    06:00 +3°C° 0 mm 1 mps 686 mmHg 78%
    07:00 +4°C° 0 mm 1 mps 687 mmHg 75%
    08:00 +5°C° 0 mm 1 mps 687 mmHg 72%
    09:00 +6°C° 0 mm 1 mps 688 mmHg 69%
    10:00 +7°C° 0 mm 2 mps 688 mmHg 65%
    11:00 +9°C° 0 mm 2 mps 688 mmHg 61%
    12:00 +12°C° 0 mm 2 mps 688 mmHg 57%
    13:00 +12°C° 0 mm 2 mps 688 mmHg 58%
    14:00 +12°C° 0 mm 2 mps 687 mmHg 59%
    15:00 +13°C° 0 mm 2 mps 687 mmHg 59%
    16:00 +10°C° 0 mm 2 mps 687 mmHg 65%
    17:00 +10°C° 0 mm 1 mps 687 mmHg 70%
    18:00 +8°C° 0 mm 1 mps 687 mmHg 76%
    19:00 +8°C° 0 mm 1 mps 687 mmHg 77%
    20:00 +8°C° 0 mm 1 mps 687 mmHg 78%
    21:00 +8°C° 0 mm 1 mps 688 mmHg 79%
    22:00 +7°C° 0 mm 1 mps 688 mmHg 79%
    23:00 +7°C° 0 mm 1 mps 688 mmHg 80%
    Show more